Location: Herm
(49.4830°N, 2.4500°W)
Time: 20:47:48
(UTC+00:00)

NOAA 15 - Pass Details

Date: 31 October 2021
Orbit: 797 x 812 km, 98.7° (Epoch: 27 November)

Event Time Altitude Azimuth Distance (km) Brightness Sun altitude
Rises 18:27:06 0° 152° (SSE) 3,321 7.6 -16.3°
Reaches altitude 10° 18:29:26 10° 150° (SSE) 2,395 6.8 -16.7°
Maximum altitude 18:34:40 63° 70° (ENE) 910 4.6 -17.5°
Drops below altitude 10° 18:39:56 10° 351° (N) 2,413 7.2 -18.4°
Sets 18:42:18 0° 348° (NNW) 3,348 8.0 -18.8°
